Time,TemperatureF,DewpointF,PressureIn,WindDirection,WindDirectionDegrees,WindSpeedMPH,WindSpeedGustMPH,Humidity,HourlyPrecipIn,Conditions,Clouds,dailyrainin,SoftwareType,DateUTC
2013-08-24 00:00:00,83.5,75.1,30.00,SSE,149,0.0,2.6,76,0.00,,---,0.00,VWS V13.01,2013-08-24 04:00:00,
2013-08-24 00:01:00,83.7,75.3,30.01,SSE,159,2.5,4.2,76,0.00,,---,0.00,VWS V13.01,2013-08-24 04:01:00,
2013-08-24 00:02:00,83.6,75.2,30.01,East,83,1.7,2.9,76,0.00,,---,0.00,VWS V13.01,2013-08-24 04:02:00,
2013-08-24 00:03:00,83.6,75.2,30.00,South,183,1.9,1.9,76,0.00,,---,0.00,VWS V13.01,2013-08-24 04:03:00,
2013-08-24 00:04:00,83.6,75.2,30.01,SE,146,4.4,4.9,76,0.00,,---,0.00,VWS V13.01,2013-08-24 04:04:00,
2013-08-24 00:06:00,83.8,75.6,30.01,SSE,149,3.4,3.9,76,0.00,,---,0.00,VWS V13.01,2013-08-24 04:06:00,
2013-08-24 00:11:00,83.7,75.7,30.01,East,93,1.3,2.6,77,0.00,,---,0.00,VWS V13.01,2013-08-24 04:11:00,
2013-08-24 00:16:00,83.7,75.7,30.00,SE,125,0.6,0.8,77,0.00,,---,0.00,VWS V13.01,2013-08-24 04:16:00,
2013-08-24 00:21:00,83.7,75.3,30.00,ENE,75,0.0,0.9,76,0.00,,---,0.00,VWS V13.01,2013-08-24 04:21:00,
2013-08-24 00:26:00,83.6,75.0,30.00,ESE,112,1.6,3.4,76,0.00,,---,0.00,VWS V13.01,2013-08-24 04:26:00,
2013-08-24 00:31:00,83.5,75.2,30.00,SE,146,1.3,1.6,76,0.00,,---,0.00,VWS V13.01,2013-08-24 04:31:00,
2013-08-24 00:36:00,83.6,75.2,30.00,South,184,5.1,7.3,76,0.00,,---,0.00,VWS V13.01,2013-08-24 04:36:00,
2013-08-24 00:41:00,83.7,75.0,30.00,East,93,4.3,4.3,75,0.00,,---,0.00,VWS V13.01,2013-08-24 04:41:00,
2013-08-24 00:46:00,83.6,74.7,30.00,East,98,1.1,2.3,75,0.00,,---,0.00,VWS V13.01,2013-08-24 04:46:00,
2013-08-24 00:51:00,83.7,74.8,30.00,ESE,122,0.9,2.1,75,0.00,,---,0.00,VWS V13.01,2013-08-24 04:51:00,
2013-08-24 00:56:00,83.9,75.1,30.00,ESE,107,1.6,1.6,75,0.00,,---,0.00,VWS V13.01,2013-08-24 04:56:00,
2013-08-24 01:01:00,83.4,74.6,30.00,South,170,1.1,7.5,75,0.00,,---,0.00,VWS V13.01,2013-08-24 05:01:00,
2013-08-24 01:06:00,83.5,74.5,30.00,SSE,160,3.2,4.8,74,0.00,,---,0.00,VWS V13.01,2013-08-24 05:06:00,
2013-08-24 01:11:00,83.5,74.6,30.00,SSE,149,2.8,2.9,74,0.00,,---,0.00,VWS V13.01,2013-08-24 05:11:00,
2013-08-24 01:16:00,83.7,75.1,30.00,SSE,148,5.4,5.4,75,0.00,,---,0.00,VWS V13.01,2013-08-24 05:16:00,
2013-08-24 01:21:00,83.5,75.3,30.00,South,173,5.3,5.3,76,0.00,,---,0.00,VWS V13.01,2013-08-24 05:21:00,
2013-08-24 01:26:00,83.5,75.4,30.00,SE,139,0.7,2.8,77,0.00,,---,0.00,VWS V13.01,2013-08-24 05:26:00,
2013-08-24 01:31:00,83.7,75.7,30.00,East,98,1.9,1.9,77,0.00,,---,0.00,VWS V13.01,2013-08-24 05:31:00,
2013-08-24 01:36:00,83.5,74.9,30.00,ESE,105,0.0,3.2,76,0.00,,---,0.00,VWS V13.01,2013-08-24 05:36:00,
2013-08-24 01:41:00,83.4,74.8,30.00,South,183,1.5,2.9,75,0.00,,---,0.00,VWS V13.01,2013-08-24 05:41:00,
2013-08-24 01:46:00,83.4,74.8,30.00,SE,127,0.0,0.6,75,0.00,,---,0.00,VWS V13.01,2013-08-24 05:46:00,
2013-08-24 01:51:00,83.5,74.8,30.00,South,169,0.0,0.0,75,0.00,,---,0.00,VWS V13.01,2013-08-24 05:51:00,
2013-08-24 01:56:00,83.5,74.8,30.00,SSE,149,0.9,1.7,75,0.00,,---,0.00,VWS V13.01,2013-08-24 05:56:00,
2013-08-24 02:01:00,83.4,74.7,30.00,East,86,0.7,1.2,75,0.00,,---,0.00,VWS V13.01,2013-08-24 06:01:00,
2013-08-24 02:06:00,83.2,74.5,30.00,SE,138,0.0,0.6,75,0.00,,---,0.00,VWS V13.01,2013-08-24 06:06:00,
2013-08-24 02:11:00,83.4,74.8,30.00,SE,145,0.0,0.0,75,0.00,,---,0.00,VWS V13.01,2013-08-24 06:11:00,
2013-08-24 02:16:00,83.2,74.8,30.00,South,177,2.6,3.9,76,0.00,,---,0.00,VWS V13.01,2013-08-24 06:16:00,
2013-08-24 02:22:00,83.3,75.2,30.00,ESE,122,1.5,1.9,77,0.00,,---,0.00,VWS V13.01,2013-08-24 06:22:00,
2013-08-24 02:27:00,83.5,75.5,29.99,South,180,0.7,0.9,77,0.00,,---,0.00,VWS V13.01,2013-08-24 06:27:00,
2013-08-24 02:32:00,83.4,75.4,29.99,SSE,167,3.8,4.6,77,0.00,,---,0.00,VWS V13.01,2013-08-24 06:32:00,
2013-08-24 02:37:00,83.2,75.1,29.99,SSE,149,1.8,5.7,76,0.00,,---,0.00,VWS V13.01,2013-08-24 06:37:00,
2013-08-24 02:42:00,83.2,75.1,29.99,SSW,207,2.3,2.5,76,0.00,,---,0.00,VWS V13.01,2013-08-24 06:42:00,
2013-08-24 02:47:00,83.2,74.9,29.99,SSE,163,3.4,5.0,76,0.00,,---,0.00,VWS V13.01,2013-08-24 06:47:00,
2013-08-24 02:52:00,83.1,74.8,29.99,South,176,4.1,5.0,76,0.00,,---,0.00,VWS V13.01,2013-08-24 06:52:00,
2013-08-24 02:57:00,82.9,74.8,29.99,SSE,166,1.7,2.3,76,0.00,,---,0.00,VWS V13.01,2013-08-24 06:57:00,
2013-08-24 03:02:00,83.2,75.1,29.99,South,181,1.7,2.7,77,0.00,,---,0.00,VWS V13.01,2013-08-24 07:02:00,
2013-08-24 03:07:00,83.0,74.8,29.99,SSE,162,2.4,5.6,76,0.00,,---,0.00,VWS V13.01,2013-08-24 07:07:00,
2013-08-24 03:12:00,82.9,74.7,29.99,SSW,195,1.5,2.5,76,0.00,,---,0.00,VWS V13.01,2013-08-24 07:12:00,
2013-08-24 03:17:00,83.1,74.9,29.99,South,173,2.5,2.9,76,0.00,,---,0.00,VWS V13.01,2013-08-24 07:17:00,
2013-08-24 03:22:00,83.2,75.0,29.99,South,190,2.6,3.8,76,0.00,,---,0.00,VWS V13.01,2013-08-24 07:22:00,
2013-08-24 03:27:00,83.0,75.0,29.99,SSW,204,2.2,2.4,77,0.00,,---,0.00,VWS V13.01,2013-08-24 07:27:00,
2013-08-24 03:32:00,83.0,75.1,29.98,SSW,205,1.6,2.5,77,0.00,,---,0.00,VWS V13.01,2013-08-24 07:32:00,
2013-08-24 03:37:00,82.9,75.1,29.98,South,174,0.0,0.0,77,0.00,,---,0.00,VWS V13.01,2013-08-24 07:37:00,
2013-08-24 03:42:00,83.0,75.2,29.98,South,172,2.4,3.2,78,0.00,,---,0.00,VWS V13.01,2013-08-24 07:42:00,
2013-08-24 03:47:00,82.9,75.2,29.98,South,176,2.9,5.3,78,0.00,,---,0.00,VWS V13.01,2013-08-24 07:47:00,
2013-08-24 03:52:00,82.9,75.2,29.98,SSE,167,0.0,1.6,78,0.00,,---,0.00,VWS V13.01,2013-08-24 07:52:00,
2013-08-24 03:57:00,83.0,75.2,29.98,South,179,2.9,4.2,78,0.00,,---,0.00,VWS V13.01,2013-08-24 07:57:00,
2013-08-24 04:02:00,82.8,75.1,29.98,SSW,201,0.0,0.6,78,0.00,,---,0.00,VWS V13.01,2013-08-24 08:02:00,
2013-08-24 04:07:00,82.7,75.1,29.98,SSE,152,0.0,0.0,78,0.00,,---,0.00,VWS V13.01,2013-08-24 08:07:00,
2013-08-24 04:12:00,82.7,75.2,29.98,SSE,152,0.0,0.0,78,0.00,,---,0.00,VWS V13.01,2013-08-24 08:12:00,
2013-08-24 04:17:00,82.5,75.1,29.98,SSE,152,0.0,0.0,78,0.00,,---,0.00,VWS V13.01,2013-08-24 08:17:00,
2013-08-24 04:22:00,82.5,75.1,29.98,SSE,152,0.0,0.0,78,0.00,,---,0.00,VWS V13.01,2013-08-24 08:22:00,
2013-08-24 04:27:00,82.5,75.1,29.98,South,179,0.0,0.0,78,0.00,,---,0.00,VWS V13.01,2013-08-24 08:27:00,
2013-08-24 04:32:00,82.5,75.1,29.98,South,179,0.0,0.0,78,0.00,,---,0.00,VWS V13.01,2013-08-24 08:32:00,
2013-08-24 04:37:00,82.5,75.2,29.97,SSW,200,2.7,2.7,79,0.00,,---,0.00,VWS V13.01,2013-08-24 08:37:00,
2013-08-24 04:42:00,82.5,75.3,29.97,South,181,0.0,0.0,79,0.00,,---,0.00,VWS V13.01,2013-08-24 08:42:00,
2013-08-24 04:47:00,82.4,75.2,29.97,South,170,0.0,0.0,79,0.00,,---,0.00,VWS V13.01,2013-08-24 08:47:00,
2013-08-24 04:52:00,82.4,75.2,29.97,South,170,0.0,0.0,79,0.00,,---,0.00,VWS V13.01,2013-08-24 08:52:00,
2013-08-24 04:57:00,82.5,75.4,29.97,SSE,158,0.0,0.0,79,0.00,,---,0.00,VWS V13.01,2013-08-24 08:57:00,
2013-08-24 05:02:00,82.4,75.5,29.97,SSE,150,0.0,0.0,80,0.00,,---,0.00,VWS V13.01,2013-08-24 09:02:00,
2013-08-24 05:07:00,82.2,75.5,29.97,SSE,150,0.0,0.0,80,0.00,,---,0.00,VWS V13.01,2013-08-24 09:07:00,
2013-08-24 05:13:00,82.1,75.5,29.98,SSE,150,0.0,0.0,80,0.00,,---,0.00,VWS V13.01,2013-08-24 09:13:00,
2013-08-24 05:18:00,82.0,75.5,29.98,SSE,150,0.0,0.0,81,0.00,,---,0.00,VWS V13.01,2013-08-24 09:18:00,
2013-08-24 05:23:00,81.8,75.4,29.98,SSE,150,0.0,0.0,81,0.00,,---,0.00,VWS V13.01,2013-08-24 09:23:00,
2013-08-24 05:28:00,82.0,75.6,29.98,SSE,150,0.0,0.0,81,0.00,,---,0.00,VWS V13.01,2013-08-24 09:28:00,
2013-08-24 05:33:00,81.6,75.3,29.98,South,173,0.0,0.0,81,0.00,,---,0.00,VWS V13.01,2013-08-24 09:33:00,
2013-08-24 05:38:00,81.5,75.2,29.98,South,173,0.0,0.0,81,0.00,,---,0.00,VWS V13.01,2013-08-24 09:38:00,
2013-08-24 05:43:00,81.7,75.4,29.98,South,173,0.0,0.0,81,0.00,,---,0.00,VWS V13.01,2013-08-24 09:43:00,
2013-08-24 05:48:00,81.6,75.4,29.98,South,173,0.0,0.0,81,0.00,,---,0.00,VWS V13.01,2013-08-24 09:48:00,
2013-08-24 05:53:00,81.5,75.4,29.98,South,173,0.0,0.0,82,0.00,,---,0.00,VWS V13.01,2013-08-24 09:53:00,
2013-08-24 05:58:00,81.3,75.2,29.98,South,173,0.0,0.0,82,0.00,,---,0.00,VWS V13.01,2013-08-24 09:58:00,
2013-08-24 06:03:00,81.4,75.4,29.99,South,173,0.0,0.0,82,0.00,,---,0.00,VWS V13.01,2013-08-24 10:03:00,
2013-08-24 06:08:00,81.4,75.4,29.99,SE,146,0.0,0.0,82,0.00,,---,0.00,VWS V13.01,2013-08-24 10:08:00,
2013-08-24 06:13:00,81.4,75.5,29.99,SE,146,0.0,0.0,82,0.00,,---,0.00,VWS V13.01,2013-08-24 10:13:00,
2013-08-24 06:18:00,81.4,75.5,29.99,SE,146,0.0,0.0,82,0.00,,---,0.00,VWS V13.01,2013-08-24 10:18:00,
2013-08-24 06:23:00,81.5,75.6,30.00,SE,146,0.0,0.0,82,0.00,,---,0.00,VWS V13.01,2013-08-24 10:23:00,
2013-08-24 06:28:00,81.2,75.4,30.00,South,170,0.0,0.0,83,0.00,,---,0.00,VWS V13.01,2013-08-24 10:28:00,
2013-08-24 06:33:00,81.1,75.3,30.00,South,170,0.0,0.0,83,0.00,,---,0.00,VWS V13.01,2013-08-24 10:33:00,
2013-08-24 06:38:00,81.1,75.4,30.01,SSE,150,0.0,0.6,83,0.00,,---,0.00,VWS V13.01,2013-08-24 10:38:00,
2013-08-24 06:43:00,81.4,75.7,30.01,SE,142,0.0,1.6,83,0.00,,---,0.00,VWS V13.01,2013-08-24 10:43:00,
2013-08-24 06:48:00,81.0,75.3,30.01,SE,142,0.0,0.0,83,0.00,,---,0.00,VWS V13.01,2013-08-24 10:48:00,
2013-08-24 06:53:00,81.1,75.4,30.01,SE,142,0.0,0.0,83,0.00,,---,0.00,VWS V13.01,2013-08-24 10:53:00,
2013-08-24 06:58:00,80.8,75.2,30.01,SE,142,0.0,0.0,83,0.00,,---,0.00,VWS V13.01,2013-08-24 10:58:00,
2013-08-24 07:03:00,80.9,75.3,30.02,SE,142,0.0,0.0,83,0.00,,---,0.00,VWS V13.01,2013-08-24 11:03:00,
2013-08-24 07:08:00,81.1,75.5,30.02,SE,142,0.0,0.0,83,0.00,,---,0.00,VWS V13.01,2013-08-24 11:08:00,
2013-08-24 07:13:00,81.0,75.2,30.02,East,96,0.0,1.1,83,0.00,,---,0.00,VWS V13.01,2013-08-24 11:13:00,
2013-08-24 07:18:00,81.5,75.6,30.02,East,96,0.0,0.0,82,0.00,,---,0.00,VWS V13.01,2013-08-24 11:18:00,
2013-08-24 07:23:00,81.3,75.2,30.02,East,96,0.0,0.0,82,0.00,,---,0.00,VWS V13.01,2013-08-24 11:23:00,
2013-08-24 07:28:00,81.7,75.6,30.03,East,96,0.0,0.0,82,0.00,,---,0.00,VWS V13.01,2013-08-24 11:28:00,
2013-08-24 07:33:00,81.5,75.3,30.03,East,96,0.0,0.0,82,0.00,,---,0.00,VWS V13.01,2013-08-24 11:33:00,
2013-08-24 07:38:00,82.1,75.9,30.04,East,96,0.0,0.0,82,0.00,,---,0.00,VWS V13.01,2013-08-24 11:38:00,
2013-08-24 07:43:00,82.1,75.8,30.04,East,96,0.0,0.0,81,0.00,,---,0.00,VWS V13.01,2013-08-24 11:43:00,
2013-08-24 07:48:00,82.4,76.0,30.04,East,96,0.0,0.0,81,0.00,,---,0.00,VWS V13.01,2013-08-24 11:48:00,
2013-08-24 07:53:00,82.5,76.2,30.04,East,96,0.0,0.0,81,0.00,,---,0.00,VWS V13.01,2013-08-24 11:53:00,
2013-08-24 07:58:00,82.6,76.2,30.04,SSE,150,0.0,0.0,81,0.00,,---,0.00,VWS V13.01,2013-08-24 11:58:00,
2013-08-24 08:03:00,82.6,76.0,30.04,SSE,150,0.0,0.0,81,0.00,,---,0.00,VWS V13.01,2013-08-24 12:03:00,
2013-08-24 08:08:00,82.7,76.1,30.05,SSE,150,0.0,0.0,80,0.00,,---,0.00,VWS V13.01,2013-08-24 12:08:00,
2013-08-24 08:13:00,82.5,75.4,30.04,SW,228,2.4,3.0,79,0.00,,---,0.00,VWS V13.01,2013-08-24 12:13:00,
2013-08-24 08:18:00,82.7,75.3,30.05,SSW,195,1.1,1.4,78,0.00,,---,0.00,VWS V13.01,2013-08-24 12:18:00,
2013-08-24 08:24:00,83.0,75.6,30.05,ESE,120,0.0,0.0,78,0.00,,---,0.00,VWS V13.01,2013-08-24 12:24:00,
2013-08-24 08:29:00,83.4,75.8,30.05,SSE,149,0.0,0.0,78,0.00,,---,0.00,VWS V13.01,2013-08-24 12:29:00,
2013-08-24 08:34:00,83.6,75.7,30.05,ESE,118,1.7,1.7,77,0.00,,---,0.00,VWS V13.01,2013-08-24 12:34:00,
2013-08-24 08:39:00,84.6,76.1,30.05,ESE,121,2.4,3.2,76,0.00,,---,0.00,VWS V13.01,2013-08-24 12:39:00,
2013-08-24 08:44:00,85.1,75.1,30.05,SE,142,3.7,5.8,72,0.00,,---,0.00,VWS V13.01,2013-08-24 12:44:00,
2013-08-24 08:49:00,85.4,74.9,30.05,SSW,193,1.2,2.4,71,0.00,,---,0.00,VWS V13.01,2013-08-24 12:49:00,
2013-08-24 08:54:00,86.1,75.4,30.05,SSE,152,2.4,4.6,71,0.00,,---,0.00,VWS V13.01,2013-08-24 12:54:00,
2013-08-24 08:59:00,86.7,75.9,30.05,South,172,0.0,0.0,70,0.00,,---,0.00,VWS V13.01,2013-08-24 12:59:00,
2013-08-24 09:04:00,87.4,75.9,30.05,SSE,162,1.1,3.7,69,0.00,,---,0.00,VWS V13.01,2013-08-24 13:04:00,
2013-08-24 09:09:00,87.7,75.8,30.05,SSW,193,4.9,4.9,68,0.00,,---,0.00,VWS V13.01,2013-08-24 13:09:00,
2013-08-24 09:14:00,87.5,75.2,30.05,South,172,1.8,8.5,67,0.00,,---,0.00,VWS V13.01,2013-08-24 13:14:00,
2013-08-24 09:19:00,87.1,75.4,30.05,SSW,197,2.8,5.8,68,0.00,,---,0.00,VWS V13.01,2013-08-24 13:19:00,
2013-08-24 09:24:00,86.7,75.3,30.06,South,179,3.2,8.1,69,0.00,,---,0.00,VWS V13.01,2013-08-24 13:24:00,
2013-08-24 09:29:00,86.8,75.4,30.06,SSE,165,5.7,6.2,69,0.00,,---,0.00,VWS V13.01,2013-08-24 13:29:00,
2013-08-24 09:34:00,87.3,75.4,30.06,South,191,4.0,4.1,68,0.00,,---,0.00,VWS V13.01,2013-08-24 13:34:00,
2013-08-24 09:39:00,87.2,74.8,30.06,SSW,202,4.2,6.3,67,0.00,,---,0.00,VWS V13.01,2013-08-24 13:39:00,
2013-08-24 09:44:00,87.5,74.7,30.06,South,186,2.2,6.1,66,0.00,,---,0.00,VWS V13.01,2013-08-24 13:44:00,
2013-08-24 09:49:00,87.6,74.9,30.06,SSE,159,4.2,4.7,66,0.00,,---,0.00,VWS V13.01,2013-08-24 13:49:00,
2013-08-24 09:54:00,87.8,74.9,30.07,SE,135,3.0,5.5,66,0.00,,---,0.00,VWS V13.01,2013-08-24 13:54:00,
2013-08-24 09:59:00,88.3,74.5,30.06,SSW,200,3.4,3.7,64,0.00,,---,0.00,VWS V13.01,2013-08-24 13:59:00,
2013-08-24 10:04:00,88.7,74.2,30.07,SSW,198,1.6,2.4,62,0.00,,---,0.00,VWS V13.01,2013-08-24 14:04:00,
2013-08-24 10:09:00,89.3,74.4,30.07,ESE,121,1.4,3.7,62,0.00,,---,0.00,VWS V13.01,2013-08-24 14:09:00,
2013-08-24 10:14:00,90.0,74.3,30.07,SE,131,3.9,7.2,60,0.00,,---,0.00,VWS V13.01,2013-08-24 14:14:00,
2013-08-24 10:19:00,89.5,74.3,30.07,South,181,4.2,5.6,61,0.00,,---,0.00,VWS V13.01,2013-08-24 14:19:00,
2013-08-24 10:24:00,89.4,74.6,30.07,SE,136,2.2,4.3,62,0.00,,---,0.00,VWS V13.01,2013-08-24 14:24:00,
2013-08-24 10:29:00,89.8,74.7,30.08,SSE,152,3.1,3.8,61,0.00,,---,0.00,VWS V13.01,2013-08-24 14:29:00,
2013-08-24 10:35:00,90.1,74.9,30.08,SSE,158,3.2,4.3,61,0.00,,---,0.00,VWS V13.01,2013-08-24 14:35:00,
2013-08-24 10:40:00,89.9,75.1,30.08,SE,127,2.1,5.8,62,0.00,,---,0.00,VWS V13.01,2013-08-24 14:40:00,
2013-08-24 10:45:00,89.1,73.6,30.08,SSE,156,5.9,5.9,60,0.00,,---,0.00,VWS V13.01,2013-08-24 14:45:00,
2013-08-24 10:50:00,89.2,74.5,30.08,South,179,4.3,4.3,62,0.00,,---,0.00,VWS V13.01,2013-08-24 14:50:00,
2013-08-24 10:55:00,89.5,73.4,30.08,SSE,155,6.2,6.2,59,0.00,,---,0.00,VWS V13.01,2013-08-24 14:55:00,
2013-08-24 11:00:00,88.9,74.1,30.08,SSE,165,7.3,7.6,62,0.00,,---,0.00,VWS V13.01,2013-08-24 15:00:00,
2013-08-24 11:05:00,89.3,73.8,30.08,SSE,150,2.7,6.0,60,0.00,,---,0.00,VWS V13.01,2013-08-24 15:05:00,
2013-08-24 11:10:00,90.0,74.5,30.07,ESE,115,1.0,2.5,60,0.00,,---,0.00,VWS V13.01,2013-08-24 15:10:00,
2013-08-24 11:15:00,90.2,73.9,30.08,SSE,148,2.7,5.5,59,0.00,,---,0.00,VWS V13.01,2013-08-24 15:15:00,
2013-08-24 11:20:00,89.9,73.7,30.07,East,96,3.0,4.0,59,0.00,,---,0.00,VWS V13.01,2013-08-24 15:20:00,
2013-08-24 11:25:00,90.0,74.8,30.07,ESE,104,8.3,8.3,61,0.00,,---,0.00,VWS V13.01,2013-08-24 15:25:00,
2013-08-24 11:30:00,90.0,74.5,30.07,South,174,2.4,4.5,60,0.00,,---,0.00,VWS V13.01,2013-08-24 15:30:00,
2013-08-24 11:35:00,90.1,72.7,30.07,SSE,149,5.0,5.7,57,0.00,,---,0.00,VWS V13.01,2013-08-24 15:35:00,
2013-08-24 11:40:00,90.2,73.6,30.07,SSE,159,2.7,4.5,58,0.00,,---,0.00,VWS V13.01,2013-08-24 15:40:00,
2013-08-24 11:45:00,90.7,73.8,30.07,South,170,2.9,7.3,58,0.00,,---,0.00,VWS V13.01,2013-08-24 15:45:00,
2013-08-24 11:50:00,90.7,74.4,30.07,SSE,167,3.0,4.6,59,0.00,,---,0.00,VWS V13.01,2013-08-24 15:50:00,
2013-08-24 11:55:00,90.8,75.0,30.06,South,174,5.1,5.1,60,0.00,,---,0.00,VWS V13.01,2013-08-24 15:55:00,
2013-08-24 12:00:00,90.1,74.7,30.06,ESE,118,2.5,6.2,61,0.00,,---,0.00,VWS V13.01,2013-08-24 16:00:00,
2013-08-24 12:05:00,90.2,74.7,30.06,South,172,2.2,2.9,60,0.00,,---,0.00,VWS V13.01,2013-08-24 16:05:00,
2013-08-24 12:10:00,90.0,75.1,30.06,ESE,112,1.3,3.3,62,0.00,,---,0.00,VWS V13.01,2013-08-24 16:10:00,
2013-08-24 12:15:00,89.7,75.2,30.06,SSE,165,8.2,8.2,62,0.00,,---,0.00,VWS V13.01,2013-08-24 16:15:00,
2013-08-24 12:20:00,89.4,75.4,30.05,SE,139,5.0,7.0,64,0.00,,---,0.00,VWS V13.01,2013-08-24 16:20:00,
2013-08-24 12:25:00,89.6,74.8,30.05,East,84,5.7,6.6,62,0.00,,---,0.00,VWS V13.01,2013-08-24 16:25:00,
2013-08-24 12:30:00,89.6,74.5,30.06,SSE,167,2.4,4.7,61,0.00,,---,0.00,VWS V13.01,2013-08-24 16:30:00,
2013-08-24 12:35:00,88.8,74.3,30.05,South,191,5.4,7.8,62,0.00,,---,0.00,VWS V13.01,2013-08-24 16:35:00,
2013-08-24 12:40:00,89.2,75.1,30.05,ESE,115,2.7,7.1,63,0.00,,---,0.00,VWS V13.01,2013-08-24 16:40:00,
2013-08-24 12:45:00,89.1,74.7,30.05,ESE,118,3.5,6.5,63,0.00,,---,0.00,VWS V13.01,2013-08-24 16:45:00,
2013-08-24 12:50:00,89.4,74.9,30.05,ESE,111,3.4,4.9,62,0.00,,---,0.00,VWS V13.01,2013-08-24 16:50:00,
2013-08-24 12:55:00,89.5,75.3,30.05,SSE,149,1.6,3.2,63,0.00,,---,0.00,VWS V13.01,2013-08-24 16:55:00,
2013-08-24 13:00:00,89.1,74.8,30.05,ESE,105,3.5,6.2,63,0.00,,---,0.00,VWS V13.01,2013-08-24 17:00:00,
2013-08-24 13:05:00,89.5,74.8,30.05,SSE,165,3.2,3.6,62,0.00,,---,0.00,VWS V13.01,2013-08-24 17:05:00,
2013-08-24 13:10:00,89.9,74.8,30.04,South,169,1.4,2.4,61,0.00,,---,0.00,VWS V13.01,2013-08-24 17:10:00,
2013-08-24 13:15:00,90.4,74.6,30.04,SE,129,4.0,4.1,60,0.00,,---,0.00,VWS V13.01,2013-08-24 17:15:00,
2013-08-24 13:20:00,91.0,74.7,30.04,South,176,5.2,5.3,59,0.00,,---,0.00,VWS V13.01,2013-08-24 17:20:00,
2013-08-24 13:25:00,90.8,74.6,30.04,SE,129,1.9,4.8,59,0.00,,---,0.00,VWS V13.01,2013-08-24 17:25:00,
2013-08-24 13:31:00,91.3,75.0,30.04,East,101,4.0,5.2,59,0.00,,---,0.00,VWS V13.01,2013-08-24 17:31:00,
2013-08-24 13:36:00,90.2,75.3,30.04,East,96,10.6,10.8,62,0.00,,---,0.00,VWS V13.01,2013-08-24 17:36:00,
2013-08-24 13:41:00,89.0,76.0,30.04,South,173,3.9,4.9,66,0.00,,---,0.00,VWS V13.01,2013-08-24 17:41:00,
2013-08-24 13:46:00,89.1,75.4,30.04,South,172,4.9,8.3,64,0.00,,---,0.00,VWS V13.01,2013-08-24 17:46:00,
2013-08-24 13:51:00,88.9,75.1,30.04,SE,139,7.5,10.4,64,0.00,,---,0.00,VWS V13.01,2013-08-24 17:51:00,
2013-08-24 13:56:00,88.6,75.0,30.04,East,87,8.5,9.8,64,0.00,,---,0.00,VWS V13.01,2013-08-24 17:56:00,
2013-08-24 14:01:00,88.8,74.2,30.04,SE,127,3.0,5.1,62,0.00,,---,0.00,VWS V13.01,2013-08-24 18:01:00,
2013-08-24 14:06:00,89.4,74.4,30.03,South,176,8.0,8.8,61,0.00,,---,0.00,VWS V13.01,2013-08-24 18:06:00,
2013-08-24 14:11:00,89.9,74.9,30.04,SE,135,3.5,8.1,62,0.00,,---,0.00,VWS V13.01,2013-08-24 18:11:00,
2013-08-24 14:16:00,89.7,75.2,30.03,ESE,122,2.9,5.0,62,0.00,,---,0.00,VWS V13.01,2013-08-24 18:16:00,
2013-08-24 14:21:00,89.8,75.2,30.03,NE,48,6.1,10.0,62,0.00,,---,0.00,VWS V13.01,2013-08-24 18:21:00,
2013-08-24 14:26:00,89.5,75.1,30.03,SE,135,5.3,9.3,63,0.00,,---,0.00,VWS V13.01,2013-08-24 18:26:00,
2013-08-24 14:31:00,88.9,75.1,30.03,East,89,7.3,9.3,64,0.00,,---,0.00,VWS V13.01,2013-08-24 18:31:00,
2013-08-24 14:36:00,88.8,75.2,30.02,ESE,112,4.7,6.7,64,0.00,,---,0.00,VWS V13.01,2013-08-24 18:36:00,
2013-08-24 14:41:00,89.3,75.3,30.02,ESE,117,7.2,8.8,64,0.00,,---,0.00,VWS V13.01,2013-08-24 18:41:00,
2013-08-24 14:46:00,89.8,73.7,30.02,South,188,2.1,4.1,59,0.00,,---,0.00,VWS V13.01,2013-08-24 18:46:00,
2013-08-24 14:51:00,90.5,74.9,30.02,East,101,6.3,7.5,60,0.00,,---,0.00,VWS V13.01,2013-08-24 18:51:00,
2013-08-24 14:56:00,90.1,75.4,30.02,East,94,6.8,9.3,62,0.00,,---,0.00,VWS V13.01,2013-08-24 18:56:00,
2013-08-24 15:01:00,89.8,75.1,30.01,SE,138,3.9,5.4,62,0.00,,---,0.00,VWS V13.01,2013-08-24 19:01:00,
2013-08-24 15:06:00,89.1,75.5,30.01,South,179,4.7,6.8,64,0.00,,---,0.00,VWS V13.01,2013-08-24 19:06:00,
2013-08-24 15:11:00,88.9,74.8,30.01,SE,142,7.1,8.6,63,0.00,,---,0.00,VWS V13.01,2013-08-24 19:11:00,
2013-08-24 15:16:00,89.1,74.4,30.01,East,101,2.2,6.5,62,0.00,,---,0.00,VWS V13.01,2013-08-24 19:16:00,
2013-08-24 15:21:00,89.3,74.7,30.00,South,176,8.9,9.6,62,0.00,,---,0.00,VWS V13.01,2013-08-24 19:21:00,
2013-08-24 15:26:00,89.3,74.3,30.01,ESE,122,4.7,9.4,62,0.00,,---,0.00,VWS V13.01,2013-08-24 19:26:00,
2013-08-24 15:31:00,89.2,74.8,30.01,ESE,118,2.5,4.2,63,0.00,,---,0.00,VWS V13.01,2013-08-24 19:31:00,
2013-08-24 15:36:00,89.6,75.1,30.00,SE,142,3.5,6.0,62,0.00,,---,0.00,VWS V13.01,2013-08-24 19:36:00,
2013-08-24 15:41:00,89.1,74.3,30.00,South,188,8.6,13.7,62,0.00,,---,0.00,VWS V13.01,2013-08-24 19:41:00,
2013-08-24 15:46:00,88.9,75.3,30.00,SSE,148,5.5,6.6,64,0.00,,---,0.00,VWS V13.01,2013-08-24 19:46:00,
2013-08-24 15:51:00,88.4,75.0,30.00,ESE,118,3.5,7.0,65,0.00,,---,0.00,VWS V13.01,2013-08-24 19:51:00,
2013-08-24 15:56:00,88.5,75.2,30.00,South,177,2.8,6.5,65,0.00,,---,0.00,VWS V13.01,2013-08-24 19:56:00,
2013-08-24 16:01:00,88.9,75.0,29.99,SSE,156,3.2,8.3,64,0.00,,---,0.00,VWS V13.01,2013-08-24 20:01:00,
2013-08-24 16:06:00,89.2,75.0,29.99,SSE,166,4.1,5.3,63,0.00,,---,0.00,VWS V13.01,2013-08-24 20:06:00,
2013-08-24 16:11:00,89.1,74.9,30.00,ESE,105,1.4,9.3,63,0.00,,---,0.00,VWS V13.01,2013-08-24 20:11:00,
2013-08-24 16:16:00,89.7,75.1,30.00,SSE,165,4.0,8.3,62,0.00,,---,0.00,VWS V13.01,2013-08-24 20:16:00,
2013-08-24 16:21:00,89.8,75.6,30.00,South,180,2.7,6.4,63,0.00,,---,0.00,VWS V13.01,2013-08-24 20:21:00,
2013-08-24 16:26:00,88.6,74.8,30.00,SSE,165,3.4,11.5,64,0.00,,---,0.00,VWS V13.01,2013-08-24 20:26:00,
2013-08-24 16:31:00,88.2,75.0,29.99,SSE,155,3.3,4.7,65,0.00,,---,0.00,VWS V13.01,2013-08-24 20:31:00,
2013-08-24 16:36:00,87.9,75.0,29.99,SE,124,3.7,6.6,66,0.00,,---,0.00,VWS V13.01,2013-08-24 20:36:00,
2013-08-24 16:41:00,87.7,75.5,29.99,ESE,111,8.7,9.3,67,0.00,,---,0.00,VWS V13.01,2013-08-24 20:41:00,
2013-08-24 16:46:00,87.2,75.2,29.99,SE,145,3.7,8.5,68,0.00,,---,0.00,VWS V13.01,2013-08-24 20:46:00,
2013-08-24 16:51:00,87.6,75.2,29.98,East,94,4.7,8.7,67,0.00,,---,0.00,VWS V13.01,2013-08-24 20:51:00,
2013-08-24 16:56:00,87.6,75.3,29.98,SW,229,3.4,9.4,67,0.00,,---,0.00,VWS V13.01,2013-08-24 20:56:00,
2013-08-24 17:01:00,87.3,75.4,29.99,SE,127,3.2,9.3,68,0.00,,---,0.00,VWS V13.01,2013-08-24 21:01:00,
2013-08-24 17:06:00,87.0,75.9,29.99,ESE,114,6.2,10.3,70,0.00,,---,0.00,VWS V13.01,2013-08-24 21:06:00,
2013-08-24 17:11:00,86.4,75.5,29.99,SSE,149,3.7,6.7,70,0.00,,---,0.00,VWS V13.01,2013-08-24 21:11:00,
2013-08-24 17:16:00,86.3,75.4,30.00,ESE,108,6.0,8.9,70,0.00,,---,0.00,VWS V13.01,2013-08-24 21:16:00,
2013-08-24 17:21:00,86.6,75.6,30.01,ESE,114,2.8,4.7,70,0.00,,---,0.00,VWS V13.01,2013-08-24 21:21:00,
2013-08-24 17:26:00,86.7,75.4,30.01,SSE,165,2.9,7.4,69,0.00,,---,0.00,VWS V13.01,2013-08-24 21:26:00,
2013-08-24 17:31:00,86.5,75.1,30.01,SE,129,4.3,5.6,69,0.00,,---,0.00,VWS V13.01,2013-08-24 21:31:00,
2013-08-24 17:36:00,86.3,75.1,30.01,ESE,117,6.9,10.1,69,0.00,,---,0.00,VWS V13.01,2013-08-24 21:36:00,
2013-08-24 17:41:00,86.0,74.3,30.00,South,169,3.6,5.9,68,0.00,,---,0.00,VWS V13.01,2013-08-24 21:41:00,
2013-08-24 17:46:00,86.0,74.2,30.00,South,179,4.0,8.2,68,0.00,,---,0.00,VWS V13.01,2013-08-24 21:46:00,
2013-08-24 17:51:00,86.1,75.3,30.00,ESE,108,6.2,8.0,70,0.00,,---,0.00,VWS V13.01,2013-08-24 21:51:00,
2013-08-24 17:56:00,85.8,75.1,30.00,ESE,121,1.3,6.6,70,0.00,,---,0.00,VWS V13.01,2013-08-24 21:56:00,
2013-08-24 18:01:00,86.1,75.6,30.00,ESE,115,6.5,12.8,71,0.00,,---,0.00,VWS V13.01,2013-08-24 22:01:00,
2013-08-24 18:06:00,85.8,75.3,30.00,ESE,121,5.2,13.2,71,0.00,,---,0.00,VWS V13.01,2013-08-24 22:06:00,
2013-08-24 18:11:00,85.6,74.9,30.00,SE,132,5.6,7.9,70,0.00,,---,0.00,VWS V13.01,2013-08-24 22:11:00,
2013-08-24 18:16:00,85.5,74.7,30.00,SE,127,3.6,4.9,70,0.00,,---,0.00,VWS V13.01,2013-08-24 22:16:00,
2013-08-24 18:21:00,85.5,74.3,30.00,SE,127,4.2,7.6,69,0.00,,---,0.00,VWS V13.01,2013-08-24 22:21:00,
2013-08-24 18:26:00,85.5,74.3,30.00,ESE,117,5.7,9.6,69,0.00,,---,0.00,VWS V13.01,2013-08-24 22:26:00,
2013-08-24 18:31:00,85.5,74.1,30.00,SE,128,5.7,9.1,69,0.00,,---,0.00,VWS V13.01,2013-08-24 22:31:00,
2013-08-24 18:36:00,85.5,74.2,30.00,East,96,1.6,5.0,69,0.00,,---,0.00,VWS V13.01,2013-08-24 22:36:00,
2013-08-24 18:41:00,85.4,74.1,30.00,East,83,6.3,7.8,69,0.00,,---,0.00,VWS V13.01,2013-08-24 22:41:00,
2013-08-24 18:46:00,85.5,74.3,30.00,ENE,70,5.2,8.1,69,0.00,,---,0.00,VWS V13.01,2013-08-24 22:46:00,
2013-08-24 18:51:00,85.5,74.9,30.00,ESE,122,4.7,7.8,71,0.00,,---,0.00,VWS V13.01,2013-08-24 22:51:00,
2013-08-24 18:56:00,85.3,75.0,30.00,East,96,5.1,10.1,71,0.00,,---,0.00,VWS V13.01,2013-08-24 22:56:00,
2013-08-24 19:01:00,85.5,75.3,30.00,SE,135,4.3,7.9,72,0.00,,---,0.00,VWS V13.01,2013-08-24 23:01:00,
2013-08-24 19:06:00,85.2,74.7,30.00,SE,125,7.7,9.3,71,0.00,,---,0.00,VWS V13.01,2013-08-24 23:06:00,
2013-08-24 19:11:00,85.4,74.9,30.01,ESE,111,4.7,6.3,71,0.00,,---,0.00,VWS V13.01,2013-08-24 23:11:00,
2013-08-24 19:16:00,85.1,74.5,30.01,SE,127,4.5,7.6,71,0.00,,---,0.00,VWS V13.01,2013-08-24 23:16:00,
2013-08-24 19:21:00,85.3,74.5,30.01,SE,131,1.7,5.0,70,0.00,,---,0.00,VWS V13.01,2013-08-24 23:21:00,
2013-08-24 19:26:00,85.5,74.5,30.01,SSE,159,1.7,3.1,70,0.00,,---,0.00,VWS V13.01,2013-08-24 23:26:00,
2013-08-24 19:31:00,85.4,73.7,30.01,East,98,5.9,8.0,68,0.00,,---,0.00,VWS V13.01,2013-08-24 23:31:00,
2013-08-24 19:36:00,85.5,73.7,30.02,SE,136,0.3,2.6,68,0.00,,---,0.00,VWS V13.01,2013-08-24 23:36:00,
2013-08-24 19:41:00,85.5,74.8,30.02,SE,146,1.4,3.8,70,0.00,,---,0.00,VWS V13.01,2013-08-24 23:41:00,
2013-08-24 19:46:00,85.8,75.4,30.02,SSE,159,1.5,3.5,71,0.00,,---,0.00,VWS V13.01,2013-08-24 23:46:00,
2013-08-24 19:51:00,85.5,75.5,30.03,South,176,2.2,7.9,72,0.00,,---,0.00,VWS V13.01,2013-08-24 23:51:00,
2013-08-24 19:56:00,85.3,75.4,30.03,South,186,5.7,8.0,72,0.00,,---,0.00,VWS V13.01,2013-08-24 23:56:00,
2013-08-24 20:01:00,85.3,75.3,30.03,ESE,120,1.6,7.9,72,0.00,,---,0.00,VWS V13.01,2013-08-25 00:01:00,
2013-08-24 20:06:00,85.2,75.1,30.03,SSE,155,1.6,3.2,72,0.00,,---,0.00,VWS V13.01,2013-08-25 00:06:00,
2013-08-24 20:11:00,85.1,75.0,30.03,ESE,114,0.0,0.0,72,0.00,,---,0.00,VWS V13.01,2013-08-25 00:11:00,
2013-08-24 20:16:00,85.2,74.7,30.03,SE,125,1.2,5.6,71,0.00,,---,0.00,VWS V13.01,2013-08-25 00:16:00,
2013-08-24 20:21:00,84.9,74.4,30.04,SE,125,4.0,8.6,71,0.00,,---,0.00,VWS V13.01,2013-08-25 00:21:00,
2013-08-24 20:26:00,85.0,74.6,30.04,ESE,121,1.9,2.9,71,0.00,,---,0.00,VWS V13.01,2013-08-25 00:26:00,
2013-08-24 20:31:00,84.9,74.4,30.04,SE,138,3.4,5.8,71,0.00,,---,0.00,VWS V13.01,2013-08-25 00:31:00,
2013-08-24 20:36:00,85.1,74.6,30.04,SE,132,0.5,2.3,71,0.00,,---,0.00,VWS V13.01,2013-08-25 00:36:00,
2013-08-24 20:41:00,85.2,74.9,30.05,East,100,1.8,6.2,71,0.00,,---,0.00,VWS V13.01,2013-08-25 00:41:00,
2013-08-24 20:46:00,85.0,74.9,30.05,ESE,120,4.0,6.0,72,0.00,,---,0.00,VWS V13.01,2013-08-25 00:46:00,
2013-08-24 20:51:00,85.0,74.7,30.05,East,96,1.6,2.7,71,0.00,,---,0.00,VWS V13.01,2013-08-25 00:51:00,
2013-08-24 20:56:00,84.5,73.7,30.05,East,83,2.1,3.9,70,0.00,,---,0.00,VWS V13.01,2013-08-25 00:56:00,
2013-08-24 21:01:00,84.3,73.6,30.05,East,80,1.9,3.7,70,0.00,,---,0.00,VWS V13.01,2013-08-25 01:01:00,
2013-08-24 21:06:00,84.1,73.7,30.05,ENE,59,2.4,4.6,71,0.00,,---,0.00,VWS V13.01,2013-08-25 01:06:00,
2013-08-24 21:11:00,84.1,73.7,30.05,ENE,68,0.0,0.0,71,0.00,,---,0.00,VWS V13.01,2013-08-25 01:11:00,
2013-08-24 21:16:00,83.8,71.5,30.06,East,86,3.9,4.0,66,0.00,,---,0.00,VWS V13.01,2013-08-25 01:16:00,
2013-08-24 21:21:00,83.3,71.8,30.05,ENE,69,0.7,2.4,68,0.00,,---,0.00,VWS V13.01,2013-08-25 01:21:00,
2013-08-24 21:26:00,82.9,72.2,30.05,NNE,24,0.0,2.5,70,0.00,,---,0.00,VWS V13.01,2013-08-25 01:26:00,
2013-08-24 21:31:00,82.9,73.7,30.06,East,97,3.0,4.3,74,0.00,,---,0.00,VWS V13.01,2013-08-25 01:31:00,
2013-08-24 21:36:00,83.3,73.6,30.07,NNE,13,3.8,3.8,73,0.00,,---,0.00,VWS V13.01,2013-08-25 01:36:00,
2013-08-24 21:41:00,83.1,73.6,30.07,ESE,105,4.6,5.1,73,0.00,,---,0.00,VWS V13.01,2013-08-25 01:41:00,
2013-08-24 21:46:00,82.9,73.3,30.07,ESE,115,2.3,5.6,73,0.00,,---,0.00,VWS V13.01,2013-08-25 01:46:00,
2013-08-24 21:51:00,83.2,73.9,30.07,ESE,112,0.8,2.2,74,0.00,,---,0.00,VWS V13.01,2013-08-25 01:51:00,
2013-08-24 21:56:00,83.2,74.3,30.08,ESE,118,5.3,5.3,75,0.00,,---,0.00,VWS V13.01,2013-08-25 01:56:00,
2013-08-24 22:01:00,83.5,74.3,30.08,East,82,2.8,3.7,74,0.00,,---,0.00,VWS V13.01,2013-08-25 02:01:00,
2013-08-24 22:06:00,83.3,74.1,30.08,North,8,0.0,1.0,74,0.00,,---,0.00,VWS V13.01,2013-08-25 02:06:00,
2013-08-24 22:11:00,83.1,74.2,30.08,ENE,70,0.0,0.0,75,0.00,,---,0.00,VWS V13.01,2013-08-25 02:11:00,
2013-08-24 22:16:00,82.8,74.2,30.09,ENE,66,0.0,0.6,75,0.00,,---,0.00,VWS V13.01,2013-08-25 02:16:00,
2013-08-24 22:21:00,82.5,74.6,30.09,ESE,110,1.4,3.3,77,0.00,,---,0.00,VWS V13.01,2013-08-25 02:21:00,
2013-08-24 22:26:00,82.8,76.0,30.08,East,80,1.2,5.5,80,0.00,,---,0.00,VWS V13.01,2013-08-25 02:26:00,
2013-08-24 22:31:00,83.0,76.5,30.08,SE,143,4.7,6.6,81,0.00,,---,0.00,VWS V13.01,2013-08-25 02:31:00,
2013-08-24 22:37:00,82.6,76.2,30.09,ENE,76,2.7,4.8,81,0.00,,---,0.00,VWS V13.01,2013-08-25 02:37:00,
2013-08-24 22:42:00,82.5,75.0,30.09,NNE,22,3.5,4.5,78,0.00,,---,0.00,VWS V13.01,2013-08-25 02:42:00,
2013-08-24 22:47:00,81.9,74.1,30.09,North,10,0.0,2.4,77,0.00,,---,0.00,VWS V13.01,2013-08-25 02:47:00,
2013-08-24 22:52:00,81.4,74.1,30.10,NNE,24,3.4,8.5,79,0.00,,---,0.00,VWS V13.01,2013-08-25 02:52:00,
2013-08-24 22:57:00,80.9,74.0,30.10,East,84,3.0,4.3,80,0.00,,---,0.00,VWS V13.01,2013-08-25 02:57:00,
2013-08-24 23:02:00,80.5,73.8,30.10,East,89,0.0,2.5,80,0.00,,---,0.00,VWS V13.01,2013-08-25 03:02:00,
2013-08-24 23:07:00,80.4,73.8,30.10,North,8,0.6,0.7,80,0.00,,---,0.00,VWS V13.01,2013-08-25 03:07:00,
2013-08-24 23:12:00,80.3,73.7,30.10,East,100,1.4,1.4,80,0.00,,---,0.00,VWS V13.01,2013-08-25 03:12:00,
2013-08-24 23:17:00,80.1,73.6,30.10,ENE,65,1.8,2.4,81,0.00,,---,0.00,VWS V13.01,2013-08-25 03:17:00,
2013-08-24 23:22:00,80.3,73.7,30.10,ENE,73,2.9,3.1,80,0.00,,---,0.00,VWS V13.01,2013-08-25 03:22:00,
2013-08-24 23:27:00,80.2,73.6,30.09,NE,52,2.9,3.6,80,0.00,,---,0.00,VWS V13.01,2013-08-25 03:27:00,
2013-08-24 23:32:00,80.0,73.4,30.09,ENE,75,0.0,2.1,80,0.00,,---,0.00,VWS V13.01,2013-08-25 03:32:00,
2013-08-24 23:37:00,80.1,73.5,30.09,NE,48,0.0,0.0,80,0.00,,---,0.00,VWS V13.01,2013-08-25 03:37:00,
2013-08-24 23:42:00,80.0,73.5,30.08,North,1,1.4,1.5,81,0.00,,---,0.00,VWS V13.01,2013-08-25 03:42:00,
2013-08-24 23:47:00,79.8,73.4,30.08,NNE,18,0.0,0.0,81,0.00,,---,0.00,VWS V13.01,2013-08-25 03:47:00,
2013-08-24 23:53:00,80.0,73.6,30.08,NNW,342,0.0,0.0,81,0.00,,---,0.00,VWS V13.01,2013-08-25 03:53:00,
2013-08-24 23:58:00,79.9,73.4,30.07,NE,39,0.0,0.0,81,0.00,,---,0.00,VWS V13.01,2013-08-25 03:58:00,